Latest Coastal Weather Observations for Browse Island

IDW60701

Issued at 1:53 pm WST Wednesday 18 October 2017 (issued every 10 minutes, with the page automatically refreshed every 10 minutes)

About coastal observations | Map of coastal stations | Coastal observations for WA | Marine services | Other Formats
Station Details ID: 200784 Name: BROWSE ISLAND Lat: -14.11 Lon: 123.55 Height: 3.7 m
Data from the previous 72 hours. | See also: Recent months at Browse Island
Date/Time
WST
Temp
°C
Wind Pressure Rain since
9am
mm
Weather Cloud Vis
km
Sea
Height
m
Swell
Dir  Spd
kts
Gust
kts
hPa Trend Height
m
Period
s
Dir
18/01:30pm 28.0 SW 15 - 1007.0 - - - - - - - - -
18/01:00pm 27.8 SW 15 - 1007.2 - - - - - - - - -
18/12:30pm 28.0 SW 15 - 1007.0 - - - - - - - - -
18/12:00pm 27.9 SW 14 - 1008.0 - - - - - - - - -
18/11:30am 28.0 SW 15 - 1008.0 - - - - - - - - -
18/11:00am 27.7 SW 14 - 1008.8 - - - - - - - - -
18/10:30am 28.0 SSW 15 - 1009.0 - - - - - - - - -
18/10:00am 27.5 SSW 14 - 1009.4 - - - - - - - - -
18/09:30am 28.0 SW 14 - 1009.0 - - - - - - - - -
18/09:00am 27.6 SW 14 - 1009.7 - - - - - - - - -
18/08:30am 28.0 SW 13 - 1010.0 - - - - - - - - -
18/08:00am 27.5 SW 14 - 1009.9 - - - - - - - - -
18/07:30am 27.0 SW 14 - 1010.0 - - - - - - - - -
18/07:00am 27.3 SW 14 - 1009.6 - - - - - - - - -
18/06:30am 28.0 SW 13 - 1009.0 - - - - - - - - -
18/06:00am 27.5 SW 12 - 1009.2 - - - - - - - - -
18/05:30am 27.0 SW 13 - 1009.0 - - - - - - - - -
18/05:00am 27.4 SW 16 - 1008.1 - - - - - - - - -
18/04:30am 28.0 SW 18 - 1007.0 - - - - - - - - -
18/04:00am 27.5 SW 16 - 1007.7 - - - - - - - - -
18/03:30am 28.0 SW 17 - 1007.0 - - - - - - - - -
18/03:00am 27.3 WSW 15 - 1007.3 - - - - - - - - -
18/02:30am 28.0 WSW 15 - 1007.0 - - - - - - - - -
18/02:00am 27.4 WSW 15 - 1006.9 - - - - - - - - -
18/01:30am 28.0 WSW 16 - 1007.0 - - - - - - - - -
18/01:00am 27.6 WSW 17 - 1007.2 - - - - - - - - -
18/12:30am 28.0 WSW 17 - 1007.0 - - - - - - - - -
18/12:00am 27.5 WSW 17 - 1007.7 - - - - - - - - -
 
Date/Time
WST
Temp
°C
Wind Pressure Rain since
9am
mm
Weather Cloud Vis
km
Sea
Height
m
Swell
Dir  Spd
kts
Gust
kts
hPa Trend Height
m
Period
s
Dir
17/11:30pm 28.0 WSW 17 - 1008.0 - - - - - - - - -
17/11:00pm 27.6 WSW 17 - 1008.2 - - - - - - - - -
17/10:30pm 27.6 WSW 17 19 1008.1 - - - - - - - - -
17/10:00pm 27.7 WSW 18 - 1008.2 - - - - - - - - -
17/09:30pm 28.0 WSW 19 - 1008.0 - - - - - - - - -
17/09:00pm 27.8 WSW 19 - 1008.0 - - - - - - - - -
17/08:30pm 28.0 WSW 19 - 1008.0 - - - - - - - - -
17/08:00pm 27.8 WSW 19 - 1008.0 - - - - - - - - -
17/07:30pm 28.0 WSW 19 - 1008.0 - - - - - - - - -
17/07:00pm 27.8 WSW 18 - 1007.8 - - - - - - - - -
17/06:30pm 28.0 WSW 18 - 1007.0 - - - - - - - - -
17/06:00pm 28.1 WSW 17 - 1007.0 - - - - - - - - -
17/05:30pm 28.0 WSW 18 - 1006.0 - - - - - - - - -
17/05:00pm 28.0 WSW 17 - 1006.2 - - - - - - - - -
17/04:30pm 28.0 WSW 16 - 1005.0 - - - - - - - - -
17/04:00pm 28.0 WSW 16 - 1005.6 - - - - - - - - -
17/03:30pm 28.0 WSW 16 - 1005.0 - - - - - - - - -
17/03:00pm 28.3 WSW 16 - 1005.5 - - - - - - - - -
17/02:30pm 28.0 WSW 15 - 1005.0 - - - - - - - - -
17/02:00pm 28.2 WSW 15 - 1006.2 - - - - - - - - -
17/01:30pm 28.0 WSW 15 - 1006.0 - - - - - - - - -
17/01:00pm 28.3 WSW 14 - 1006.8 - - - - - - - - -
17/12:30pm 28.0 WSW 15 - 1007.0 - - - - - - - - -
17/12:00pm 27.9 WSW 15 - 1007.5 - - - - - - - - -
17/11:30am 28.0 WSW 14 - 1008.0 - - - - - - - - -
17/11:00am 28.1 WSW 14 - 1008.2 - - - - - - - - -
17/10:30am 28.0 WSW 15 - 1008.0 - - - - - - - - -
17/10:00am 27.9 SW 14 - 1008.9 - - - - - - - - -
17/09:30am 28.0 SW 11 - 1009.0 - - - - - - - - -
17/09:00am 27.9 SW 11 - 1009.5 - - - - - - - - -
17/08:30am 28.0 SSW 11 - 1009.0 - - - - - - - - -
17/08:00am 27.7 SSW 13 - 1009.4 - - - - - - - - -
17/07:30am 28.0 SSW 13 - 1009.0 - - - - - - - - -
17/07:00am 27.8 SW 13 - 1008.4 - - - - - - - - -
17/06:30am 28.0 SW 13 - 1008.0 - - - - - - - - -
17/06:00am 27.9 SW 11 - 1007.8 - - - - - - - - -
17/05:30am 28.0 SW 13 - 1007.0 - - - - - - - - -
17/05:00am 27.8 SW 13 - 1007.3 - - - - - - - - -
17/04:30am 28.0 SW 14 - 1007.0 - - - - - - - - -
17/04:00am 27.6 SW 15 - 1006.6 - - - - - - - - -
17/03:30am 28.0 WSW 17 - 1006.0 - - - - - - - - -
17/03:00am 27.6 WSW 16 - 1005.9 - - - - - - - - -
17/02:30am 28.0 WSW 16 - 1006.0 - - - - - - - - -
17/02:00am 27.6 WSW 15 - 1006.0 - - - - - - - - -
17/01:30am 28.0 WSW 17 - 1006.0 - - - - - - - - -
17/01:00am 27.8 WSW 17 - 1006.2 - - - - - - - - -
17/12:30am 28.0 WSW 17 - 1006.0 - - - - - - - - -
17/12:00am 27.8 WSW 15 - 1006.9 - - - - - - - - -
 
Date/Time
WST
Temp
°C
Wind Pressure Rain since
9am
mm
Weather Cloud Vis
km
Sea
Height
m
Swell
Dir  Spd
kts
Gust
kts
hPa Trend Height
m
Period
s
Dir
16/11:30pm 28.0 WSW 15 - 1007.0 - - - - - - - - -
16/11:00pm 27.9 WSW 15 - 1007.6 - - - - - - - - -
16/10:30pm 28.0 WSW 13 - 1008.0 - - - - - - - - -
16/10:00pm 28.2 W 14 - 1008.2 - - - - - - - - -
16/09:30pm 28.0 W 13 - 1008.0 - - - - - - - - -
16/09:00pm 28.1 WSW 12 - 1008.3 - - - - - - - - -
16/08:30pm 28.0 W 12 - 1008.0 - - - - - - - - -
16/08:00pm 28.0 WSW 12 - 1007.9 - - - - - - - - -
16/07:30pm 28.0 W 10 - 1007.0 - - - - - - - - -
16/07:00pm 28.1 W 10 - 1007.4 - - - - - - - - -
16/06:30pm 28.0 W 9 - 1007.0 - - - - - - - - -
16/06:00pm 28.1 WSW 8 - 1006.6 - - - - - - - - -
16/05:30pm 28.0 SW 8 - 1006.0 - - - - - - - - -
16/05:00pm 28.4 SW 9 - 1006.0 - - - - - - - - -
16/04:30pm 28.0 SSW 11 - 1005.0 - - - - - - - - -
16/04:00pm 28.4 SSW 11 - 1005.7 - - - - - - - - -
16/03:30pm 29.0 SSW 13 - 1005.0 - - - - - - - - -
16/03:00pm 28.6 SSW 13 - 1005.6 - - - - - - - - -
16/02:30pm 29.0 SSW 12 - 1005.0 - - - - - - - - -
16/02:00pm 28.9 SSW 11 - 1005.9 - - - - - - - - -
16/01:30pm 29.0 SSW 9 - 1006.0 - - - - - - - - -
16/01:00pm 28.7 SSW 10 - 1006.3 - - - - - - - - -
16/12:30pm 29.0 SSW 10 - 1006.0 - - - - - - - - -
16/12:00pm 28.2 SSW 10 - 1007.2 - - - - - - - - -
16/11:30am 28.0 SSW 10 - 1007.0 - - - - - - - - -
16/11:00am 28.3 SSW 10 - 1008.1 - - - - - - - - -
16/10:30am 28.0 SW 11 - 1008.0 - - - - - - - - -
16/10:00am 28.5 SW 10 - 1009.0 - - - - - - - - -
16/09:30am 28.0 WSW 10 - 1009.0 - - - - - - - - -
16/09:00am 28.0 SW 10 - 1009.3 - - - - - - - - -
16/08:30am 28.0 SW 9 - 1009.0 - - - - - - - - -
16/08:00am 28.0 WSW 9 - 1009.5 - - - - - - - - -
16/07:30am 28.0 SW 9 - 1009.0 - - - - - - - - -
16/07:00am 28.0 SSW 8 - 1009.8 - - - - - - - - -
16/06:30am 28.0 SW 8 - 1009.0 - - - - - - - - -
16/06:00am 27.9 SW 9 - 1009.4 - - - - - - - - -
16/05:30am 28.0 SW 8 - 1009.0 - - - - - - - - -
16/05:00am 27.9 WSW 8 - 1008.7 - - - - - - - - -
16/04:30am 28.0 WSW 8 - 1008.0 - - - - - - - - -
16/04:00am 27.8 WSW 8 - 1008.1 - - - - - - - - -
16/03:30am 28.0 WSW 8 - 1008.0 - - - - - - - - -
16/03:00am 27.9 WSW 6 - 1007.7 - - - - - - - - -
16/02:30am 28.0 WSW 4 - 1007.0 - - - - - - - - -
16/02:00am 27.9 WSW 4 - 1007.8 - - - - - - - - -
16/01:30am 28.0 SW 5 - 1007.0 - - - - - - - - -
16/01:00am 28.0 W 5 - 1008.2 - - - - - - - - -
16/12:30am 28.0 WSW 4 - 1008.0 - - - - - - - - -
16/12:00am 28.1 WSW 4 - 1008.5 - - - - - - - - -
 
Date/Time
WST
Temp
°C
Wind Pressure Rain since
9am
mm
Weather Cloud Vis
km
Sea
Height
m
Swell
Dir  Spd
kts
Gust
kts
hPa Trend Height
m
Period
s
Dir
15/11:30pm 28.0 W 4 - 1008.0 - - - - - - - - -
15/11:00pm 28.2 CALM 0 - 1009.1 - - - - - - - - -
15/10:30pm 28.0 S 3 - 1009.0 - - - - - - - - -
15/10:00pm 28.3 S 5 - 1009.3 - - - - - - - - -
15/09:30pm 28.0 S 7 - 1009.0 - - - - - - - - -
15/09:00pm 28.3 W 5 - 1008.9 - - - - - - - - -
15/08:30pm 28.0 WSW 5 - 1008.0 - - - - - - - - -
15/08:00pm 28.4 WSW 8 - 1008.2 - - - - - - - - -
15/07:30pm 28.0 W 7 - 1008.0 - - - - - - - - -
15/07:00pm 28.4 W 6 7 1007.5 - - - - - - - - -
15/06:30pm 29.0 W 6 - 1007.0 - - - - - - - - -
15/06:00pm 28.5 WSW 4 - 1007.0 - - - - - - - - -
15/05:30pm 29.0 SW 4 - 1006.0 - - - - - - - - -
15/05:00pm 29.2 SW 4 - 1006.6 - - - - - - - - -
15/04:30pm 30.0 SW 4 - 1006.0 - - - - - - - - -
15/04:00pm 30.0 WNW 3 - 1006.0 - - - - - - - - -
15/03:30pm 29.8 WSW 4 5 1006.0 - - - - - - - - -
15/03:00pm 29.7 WSW 4 - 1005.8 - - - - - - - - -
15/02:30pm 30.0 W 5 - 1006.0 - - - - - - - - -
15/02:00pm 30.2 W 4 - 1006.1 - - - - - - - - -

Other Formats:

Comma delimited format used in spreadsheet applications
http://www.bom.gov.au/fwo/IDW60701/IDW60701.94103.axf

JavaScript Object Notation format (JSON) in row-major order
http://www.bom.gov.au/fwo/IDW60701/IDW60701.94103.json